Home > Weather > Banjul > Past weeks

Flag for Gambia Past Weather in Banjul, Gambia — Yesterday and Last 2 Weeks

Now
95 °F

Clear.


Feels Like: 93 °F
Forecast: 71 / 85 °F
Wind: 6 mph from West

Location: Banjul / Yundum

Current Time: May 30, 2016 at 2:44:43 PM

Latest Report: May 30, 2016 at 2:00 PM


Visibility: 6 mi

Pressure: 29.77 "Hg

Humidity: 25%

Dew Point: 54 °F

Location of BanjulLocation

Past Weather in Banjul — Graph

°F

Banjul Temperature Yesterday

Maximum temperature yesterday: 82 °F (at 2:00 PM)
Minimum temperature yesterday: 70 °F (at 3:00 AM)
Average temperature yesterday: 75 °F

High & Low Weather Summary for the Past Weeks

 TemperatureHumidityPressure
High95 °F (May 27, 4:00 PM)100% (May 25, 7:00 AM)30.07 "Hg (May 25, 7:00 AM)
Low66 °F (May 17, 6:00 AM)28% (May 27, 3:00 PM)29.77 "Hg (May 30, 4:00 AM)
Average74 °F74%29.91 "Hg
* Reported May 15 1:00 PM — May 30 1:00 PM, Banjul, Weather by CustomWeather, © 2016

Note: Actual official high and low records may vary slightly from our data, if they occured in-between our weather recording intervals... More about our weather records

Advertising

Banjul Weather History for the Previous 24 Hours

Scroll right to see more
 ConditionsComfort  
Time TempWeatherWind HumidityBarometerVisibility
1:00 PM
Mon, May 30
90 °FClear.6 mph36%29.77 "Hg6 mi
12:00 PM88 °FClear.5 mph46%29.77 "Hg6 mi
11:00 AM82 °FClear.6 mph55%29.80 "Hg6 mi
10:00 AM79 °FScattered clouds.6 mph65%29.80 "Hg6 mi
9:00 AM73 °FMild.No wind78%29.77 "HgN/A
8:00 AM72 °FScattered clouds.3 mph78%29.77 "Hg6 mi
7:00 AM70 °FSunny.5 mph83%29.77 "Hg10 mi
6:00 AM70 °FClear.5 mph83%29.77 "Hg10 mi
5:00 AM70 °FClear.6 mph83%29.77 "Hg10 mi
4:00 AM70 °FClear.3 mph83%29.77 "Hg10 mi
3:00 AM70 °FClear.7 mph83%29.80 "Hg10 mi
2:00 AM72 °FClear.6 mph78%29.80 "Hg10 mi
1:00 AM72 °FClear.5 mph78%29.80 "Hg10 mi
12:00 AM73 °FClear.6 mph78%29.80 "Hg10 mi
11:00 PM
Sun, May 29
73 °FClear.6 mph78%29.83 "Hg10 mi
10:00 PM73 °FClear.3 mph74%29.83 "Hg10 mi
9:00 PM73 °FClear.7 mph78%29.83 "Hg10 mi
8:00 PM73 °FClear.9 mph74%29.83 "Hg10 mi
7:00 PM75 °FSunny.9 mph74%29.80 "Hg10 mi
6:00 PM77 °FSunny.10 mph69%29.80 "Hg10 mi
5:00 PM79 °FSunny.13 mph65%29.80 "Hg10 mi
4:00 PM82 °FSunny.8 mph51%29.83 "Hg10 mi
3:00 PM82 °FSunny.10 mph58%29.83 "Hg10 mi
2:00 PM82 °FSunny.13 mph58%29.86 "Hg10 mi
Weather by CustomWeather, © 2016

See weather overviewHow to use our weather pages